Location: Township of Marena
(38.1747°N, 99.6798°W)
Time: 03:44:57
(UTC+00:00)

Cosmos 1553 Rocket - Pass Details

Date: 26 October 2020
Orbit: 940 x 1009 km, 82.9° (Epoch: 24 November)

Event Time Altitude Azimuth Distance (km) Brightness Sun altitude
Rises 00:41:53 0° 170° (S) 3,720 7.0 -11.4°
Reaches altitude 10° 00:44:29 10° 166° (SSE) 2,769 6.3 -11.9°
Maximum altitude 00:50:37 53° 91° (E) 1,210 4.1 -13.1°
Drops below altitude 10° 00:56:43 10° 17° (NNE) 2,749 6.1 -14.3°
Sets 00:59:17 0° 13° (NNE) 3,691 6.9 -14.8°
